Location: Newark
(33.6333°S, 78.8500°W)
Time: 15:57:25
(UTC+00:00)

Courier 1B - Pass Details

Date: 28 September 2019
Orbit: 962 x 1209 km, 28.3° (Epoch: 22 October)

Event Time Altitude Azimuth Distance (km) Brightness Sun altitude
Rises 02:33:38 0° 276° (W) 3,969 11.2 -39.5°
Reaches altitude 10° 02:37:58 10° 298° (WNW) 2,949 10.2 -40.2°
Enters shadow 02:38:52 12° 305° (NW) 2,804 10.0 -40.4°
Maximum altitude 02:41:35 14° 329° (NNW) 2,578 - -40.8°
Drops below altitude 10° 02:45:05 10° 359° (N) 2,846 - -41.4°
Sets 02:49:10 0° 23° (NNE) 3,741 - -42.0°
